Indianapolis, IN

6:13 AM EST on November 15, 2019 (GMT -0500)
Indianapolis International

Weather History for KIND - September, 2019

Change the Weather History Date:

Friday, September 20, 2019

  Actual Average Record
Temperature  
Mean Temperature 78 °F 65 °F  
Max Temperature 89 °F 76 °F 94 °F (1940)
Min Temperature 66 °F 54 °F 36 °F (1991)
Degree Days  
Heating Degree Days 0 3  
Month to date heating degree days 0 25  
Since 1 July heating degree days 0 29  
Cooling Degree Days 13 3  
Month to date cooling degree days 183 106  
Year to date cooling degree days 1222 1027  
Growing Degree Days 28 (Base 50)    
Moisture  
Dew Point 65 °F    
Average Humidity 68    
Maximum Humidity 93    
Minimum Humidity 43    
Precipitation  
Precipitation 0.00 in 0.10 in 2.20 in (1950)
Month to date precipitation 0.01 2.05  
Year to date precipitation 36.56 31.38  
Snow  
Snow 0.00 in 0.00 in 0.00 in ()
Month to date snowfall 0.0 0.0  
Since 1 July snowfall 0.0 0.0  
Since 1 September snowfall 0.0 0.0  
Snow Depth 0.00 in    
Sea Level Pressure  
Sea Level Pressure 30.11 in    
Wind  
Wind Speed 5 mph (SSW)    
Max Wind Speed 13 mph    
Max Gust Speed 17 mph    
Visibility 10 miles    
Events      
T = Trace of Precipitation, MM = Missing Value Source: NWS Daily Summary

Daily Weather History Graph

Daily Weather History Graph

Search for Another Location

Airport or City:

Astronomy

Sep. 20, 2019 Rise Set
Actual Time 7:30 AM EDT 7:45 PM EDT
Civil Twilight 7:03 AM EDT 8:12 PM EDT
Nautical Twilight 6:32 AM EDT 8:44 PM EDT
Astronomical Twilight 5:59 AM EDT 9:16 PM EDT
Moon 11:36 PM EDT (9/20) 1:34 PM EDT (9/20)
Length of Visible Light 13h 09m
Length of Day
12h 15m
Waning Gibbous, 65% of the Moon is Illuminated
Sep 20
Waning Gibbous
Sep 21
Last Quarter
Sep 28
New
Oct 5
First Quarter
Oct 13
Full

Hourly Weather History & Observations

Time (EDT) Temp. Heat Index Dew Point Humidity Pressure Visibility Wind Dir Wind Speed Gust Speed Precip Events Conditions
12:54 AM 72.0 °F - 62.1 °F 71% 30.06 in 8.0 mi Calm Calm - N/A   Partly Cloudy
1:54 AM 72.0 °F - 63.0 °F 73% 30.07 in 10.0 mi Calm Calm - N/A   Clear
2:54 AM 71.1 °F - 64.0 °F 78% 30.08 in 10.0 mi ESE 4.6 mph - N/A   Partly Cloudy
3:54 AM 70.0 °F - 63.0 °F 78% 30.08 in 10.0 mi Calm Calm - N/A   Mostly Cloudy
4:54 AM 70.0 °F - 63.0 °F 78% 30.08 in 10.0 mi East 4.6 mph - N/A   Scattered Clouds
5:54 AM 68.0 °F - 63.0 °F 84% 30.09 in 10.0 mi Calm Calm - N/A   Scattered Clouds
6:54 AM 66.9 °F - 62.1 °F 84% 30.11 in 10.0 mi Calm Calm - N/A   Partly Cloudy
7:54 AM 66.0 °F - 64.0 °F 93% 30.12 in 7.0 mi SE 3.5 mph - N/A   Scattered Clouds
8:54 AM 71.1 °F - 64.9 °F 81% 30.14 in 10.0 mi South 3.5 mph - N/A   Scattered Clouds
9:54 AM 73.0 °F - 66.0 °F 79% 30.14 in 10.0 mi SSW 6.9 mph - N/A   Partly Cloudy
10:54 AM 77.0 °F - 66.0 °F 69% 30.15 in 10.0 mi SW 4.6 mph - N/A   Scattered Clouds
11:54 AM 80.1 °F 82.3 °F 66.9 °F 64% 30.15 in 10.0 mi SSW 3.5 mph - N/A   Scattered Clouds
12:54 PM 82.9 °F 84.6 °F 64.9 °F 54% 30.14 in 10.0 mi Calm Calm - N/A   Scattered Clouds
1:54 PM 86.0 °F 87.6 °F 64.9 °F 49% 30.12 in 10.0 mi SW 3.5 mph - 0.00 in   Mostly Cloudy
2:54 PM 87.1 °F 87.5 °F 62.1 °F 43% 30.12 in 10.0 mi South 8.1 mph - N/A   Scattered Clouds
3:54 PM 87.1 °F 87.8 °F 63.0 °F 44% 30.10 in 10.0 mi SW 6.9 mph - N/A   Scattered Clouds
4:54 PM 84.9 °F 86.1 °F 64.0 °F 49% 30.10 in 10.0 mi SW 8.1 mph - N/A   Scattered Clouds
5:54 PM 84.9 °F 86.6 °F 64.9 °F 51% 30.11 in 10.0 mi SW 10.4 mph - N/A   Mostly Cloudy
6:54 PM 82.9 °F 85.0 °F 66.0 °F 56% 30.11 in 10.0 mi SW 9.2 mph - N/A   Mostly Cloudy
7:54 PM 78.1 °F - 64.0 °F 62% 30.12 in 10.0 mi SSW 6.9 mph - N/A   Scattered Clouds
8:54 PM 75.9 °F - 66.9 °F 74% 30.13 in 10.0 mi West 3.5 mph - N/A   Scattered Clouds
9:54 PM 75.0 °F - 68.0 °F 79% 30.14 in 10.0 mi SSW 6.9 mph - N/A   Partly Cloudy
10:54 PM 73.9 °F - 66.9 °F 79% 30.15 in 10.0 mi SSW 5.8 mph - N/A   Partly Cloudy
11:54 PM 73.9 °F - 66.9 °F 79% 30.15 in 10.0 mi South 4.6 mph - N/A   Mostly Cloudy